GW0701 Weather Reports


Display with metric or nautical units.
time (UTC)temp
F
wind
direction
speed
MPH
gust
MPH
rain 1hr
in
rain 24hr
in
rain mn
in
humidity
%
barometer
mb
20260502185440 57 263 2.0 2.0 0.00 0.00 0.00 41 1019.4
20260502184937 57 19 3.0 3.0 0.00 0.00 0.00 40 1019.4
20260502184432 58 223 2.0 2.0 0.00 0.00 0.00 41 1019.5
20260502183928 57 156 1.0 1.0 0.00 0.00 0.00 38 1019.6
20260502183425 57 289 3.0 3.0 0.00 0.00 0.00 41 1019.7
20260502182920 57 25 5.0 7.0 0.00 0.00 0.00 39 1019.7
20260502182416 57 321 2.0 3.0 0.00 0.00 0.00 37 1019.5
20260502181912 57 339 3.0 5.0 0.00 0.00 0.00 35 1019.7
20260502181411 57 27 2.0 2.0 0.00 0.00 0.00 38 1019.6
20260502180909 59 175 4.0 6.0 0.00 0.00 0.00 36 1019.8
20260502180406 59 207 2.0 2.0 0.00 0.00 0.00 36 1019.7
20260502170324 55 348 0.0 1.0 0.00 0.00 0.00 38 1020.0
20260502164312 55 306 6.0 8.0 0.00 0.00 0.00 43 1020.3
20260502163808 55 289 0.0 1.0 0.00 0.00 0.00 41 1020.0
20260502163304 55 293 2.0 3.0 0.00 0.00 0.00 40 1020.0
20260502162802 54 320 1.0 1.0 0.00 0.00 0.00 40 1020.1
20260502162259 54 318 2.0 2.0 0.00 0.00 0.00 44 1020.4
20260502161755 55 263 1.0 1.0 0.00 0.00 0.00 46 1020.3
20260502161251 56 276 2.0 3.0 0.00 0.00 0.00 40 1020.4
20260502160749 55 13 2.0 5.0 0.00 0.00 0.00 44 1020.2
20260502160243 53 347 4.0 6.0 0.00 0.00 0.00 47 1020.2
20260502152212 55 136 3.0 5.0 0.00 0.00 0.00 47 1020.2
20260502151710 56 316 2.0 2.0 0.00 0.00 0.00 52 1020.1
20260502151207 56 196 3.0 3.0 0.00 0.00 0.00 57 1020.1
20260502150704 54 219 0.0 0.0 0.00 0.00 0.00 59 1020.0
20260502150200 54 27 3.0 3.0 0.00 0.00 0.00 61 1020.2
20260502140124 51 161 0.0 0.0 0.00 0.00 0.00 74 1020.1
20260502130549 48 95 1.0 1.0 0.00 0.00 0.00 83 1019.8
20260502123532 44 288 1.0 1.0 0.00 0.00 0.00 89 1019.6
20260502123028 44 29 1.0 1.0 0.00 0.00 0.00 90 1019.5
20260502122525 44 359 1.0 2.0 0.00 0.00 0.00 90 1019.5
20260502122022 44 339 3.0 3.0 0.00 0.00 0.00 90 1019.5
20260502121520 44 315 0.0 0.0 0.00 0.00 0.00 91 1019.2
20260502121017 43 40 3.0 3.0 0.00 0.00 0.00 91 1019.2
20260502120513 43 339 1.0 2.0 0.00 0.00 0.00 92 1019.2
20260502115508 43 297 0.0 1.0 0.00 0.00 0.00 92 1019.1
20260502115004 43 25 1.0 2.0 0.00 0.00 0.00 92 1019.0
20260502114501 43 333 2.0 2.0 0.00 0.00 0.00 92 1018.9
20260502113958 43 256 0.0 0.0 0.00 0.00 0.00 92 1019.0
20260502113455 43 263 0.0 1.0 0.00 0.00 0.00 91 1018.9
20260502112954 43 268 0.0 1.0 0.00 0.00 0.00 90 1018.8
20260502112451 43 287 1.0 1.0 0.00 0.00 0.00 90 1018.9
20260502111948 43 307 1.0 1.0 0.00 0.00 0.00 90 1018.8
20260502111445 43 282 0.0 0.0 0.00 0.00 0.00 90 1018.7
20260502110943 43 286 1.0 1.0 0.00 0.00 0.00 90 1018.8
20260502110440 43 296 1.0 1.0 0.00 0.00 0.00 90 1018.8
20260502105937 43 287 0.0 1.0 0.00 0.00 0.00 90 1018.8
20260502105435 43 325 2.0 2.0 0.00 0.00 0.00 90 1019.0
20260502104933 43 315 1.0 1.0 0.00 0.00 0.00 89 1018.7
20260502104429 43 290 0.0 1.0 0.00 0.00 0.00 88 1019.0
20260502103927 43 288 1.0 1.0 0.00 0.00 0.00 88 1018.7
20260502103425 43 313 1.0 1.0 0.00 0.00 0.00 88 1018.9
20260502102921 43 35 3.0 3.0 0.00 0.00 0.00 88 1018.8
20260502102418 43 317 0.0 0.0 0.00 0.00 0.00 88 1018.8
20260502101915 43 280 0.0 0.0 0.00 0.00 0.00 88 1018.6
20260502101414 43 316 1.0 1.0 0.00 0.00 0.00 89 1018.7
20260502100911 43 317 1.0 1.0 0.00 0.00 0.00 89 1018.7
20260502100411 43 341 2.0 2.0 0.00 0.00 0.00 89 1018.7
20260502091344 42 313 1.0 2.0 0.00 0.00 0.00 90 1018.4
20260502090842 42 288 1.0 2.0 0.00 0.00 0.00 91 1018.3
20260502090338 43 272 1.0 2.0 0.00 0.00 0.00 90 1018.2
20260502071233 42 297 0.0 0.0 0.00 0.00 0.00 88 1017.8
20260502070732 42 344 2.0 2.0 0.00 0.00 0.00 90 1017.9
20260502070229 42 305 0.0 1.0 0.00 0.00 0.00 91 1018.0
20260502065727 42 284 1.0 1.0 0.00 0.00 0.00 90 1018.0
20260502065225 42 282 0.0 0.0 0.00 0.00 0.00 88 1018.0
20260502064723 42 283 0.0 1.0 0.00 0.00 0.00 88 1018.2
20260502064221 42 289 0.0 0.0 0.00 0.00 0.00 88 1018.0
20260502063718 42 288 0.0 0.0 0.00 0.00 0.00 87 1018.3
20260502063216 42 288 0.0 0.0 0.00 0.00 0.00 87 1018.1
20260502062712 42 288 0.0 0.0 0.00 0.00 0.00 87 1018.0
20260502062210 42 290 0.0 0.0 0.00 0.00 0.00 87 1018.3
20260502061709 42 288 0.0 0.0 0.00 0.00 0.00 88 1018.0
20260502061205 42 288 0.0 0.0 0.00 0.00 0.00 87 1018.3
20260502060700 43 288 0.0 0.0 0.00 0.00 0.00 86 1018.1
20260502060157 43 288 0.0 0.0 0.00 0.00 0.00 85 1018.3
20260502055655 43 289 0.0 1.0 0.00 0.00 0.00 85 1018.2
20260502055153 43 288 0.0 0.0 0.00 0.00 0.00 86 1018.2
20260502054652 43 296 1.0 1.0 0.00 0.00 0.00 87 1018.2
20260502054149 43 284 0.0 1.0 0.00 0.00 0.00 86 1018.0
20260502053646 44 284 1.0 1.0 0.00 0.00 0.00 85 1018.1
20260502053143 44 284 0.0 0.0 0.00 0.00 0.00 84 1018.2
20260502052641 43 284 0.0 0.0 0.00 0.00 0.00 84 1018.0
20260502052139 43 284 0.0 0.0 0.00 0.00 0.00 84 1018.2
20260502051637 43 284 0.0 0.0 0.00 0.00 0.00 85 1018.4
20260502051135 44 290 0.0 1.0 0.00 0.00 0.00 85 1018.4
20260502050631 44 308 1.0 1.0 0.00 0.00 0.00 85 1018.3
20260502050127 44 283 0.0 0.0 0.00 0.00 0.00 84 1018.4
20260502045624 44 283 0.0 0.0 0.00 0.00 0.00 84 1018.4
20260502045121 44 283 0.0 0.0 0.00 0.00 0.00 85 1018.4
20260502044617 44 283 0.0 0.0 0.00 0.00 0.00 85 1018.2
20260502044114 43 283 0.0 0.0 0.00 0.00 0.00 86 1018.1
20260502043612 44 283 0.0 0.0 0.00 0.00 0.00 87 1018.3
20260502043108 44 283 0.0 0.0 0.00 0.00 0.00 86 1018.2
20260502042603 44 283 0.0 0.0 0.00 0.00 0.00 85 1018.3
20260502042101 44 283 0.0 0.0 0.00 0.00 0.00 83 1018.4
20260502041558 44 292 0.0 0.0 0.00 0.00 0.00 83 1018.2
20260502041055 44 296 0.0 0.0 0.00 0.00 0.00 85 1018.3
20260502040551 45 327 1.0 1.0 0.00 0.00 0.00 86 1018.0
20260502040049 44 324 1.0 1.0 0.00 0.00 0.00 86 1018.3
20260502035544 44 305 1.0 2.0 0.00 0.00 0.00 85 1018.1
20260502035042 45 300 0.0 0.0 0.00 0.00 0.00 84 1018.2
20260502034540 45 300 1.0 1.0 0.00 0.00 0.00 84 1018.0
20260502034038 45 301 0.0 0.0 0.00 0.00 0.00 84 1018.2
20260502033536 45 286 0.0 0.0 0.00 0.00 0.00 83 1018.2
20260502033033 45 285 0.0 0.0 0.00 0.00 0.00 80 1018.5
20260502032529 46 292 1.0 1.0 0.00 0.00 0.00 80 1018.3
20260502032026 46 297 1.0 1.0 0.00 0.00 0.00 78 1018.0
20260502031524 47 308 1.0 1.0 0.00 0.00 0.00 77 1018.1
20260502031021 47 313 1.0 1.0 0.00 0.00 0.00 79 1018.1
20260502030520 47 302 0.0 0.0 0.00 0.00 0.00 76 1018.1
20260502030018 47 302 1.0 1.0 0.00 0.00 0.00 76 1018.2
20260502025515 47 302 1.0 1.0 0.00 0.00 0.00 75 1018.0
20260502025013 47 300 1.0 1.0 0.00 0.00 0.00 76 1018.0
20260502024510 47 299 0.0 0.0 0.00 0.00 0.00 76 1017.7
20260502024008 47 307 0.0 1.0 0.00 0.00 0.00 78 1017.7
20260502023505 47 323 1.0 1.0 0.00 0.00 0.00 80 1017.8
20260502023002 47 295 0.0 0.0 0.00 0.00 0.00 75 1017.5
20260502022459 47 294 0.0 0.0 0.00 0.00 0.00 75 1017.3
20260502021956 47 295 0.0 0.0 0.00 0.00 0.00 76 1017.5
20260502021454 47 296 0.0 0.0 0.00 0.00 0.00 74 1017.5
20260502020950 48 303 1.0 1.0 0.00 0.00 0.00 73 1017.2
20260502020449 48 316 1.0 1.0 0.00 0.00 0.00 73 1017.3
20260502015945 48 302 1.0 1.0 0.00 0.00 0.00 73 1017.1
20260502015443 48 296 0.0 0.0 0.00 0.00 0.00 72 1017.1
20260502014939 49 296 0.0 0.0 0.00 0.00 0.00 72 1017.2
20260502014436 49 309 0.0 1.0 0.00 0.00 0.00 71 1017.0
20260502013933 49 309 1.0 1.0 0.00 0.00 0.00 69 1016.7
20260502013428 50 318 1.0 1.0 0.00 0.00 0.00 70 1016.6
20260502012925 50 315 1.0 1.0 0.00 0.00 0.00 69 1016.5
20260502012423 51 343 1.0 1.0 0.00 0.00 0.00 68 1016.6
20260502011920 51 352 1.0 2.0 0.00 0.00 0.00 68 1016.6
20260502011416 51 348 2.0 2.0 0.00 0.00 0.00 66 1016.5
20260502010913 51 343 1.0 1.0 0.00 0.00 0.00 65 1016.1
20260502010410 51 317 1.0 1.0 0.00 0.00 0.00 64 1016.5
20260502005906 52 314 1.0 1.0 0.00 0.00 0.00 63 1016.1
20260502005404 52 24 1.0 2.0 0.00 0.00 0.00 63 1016.0
20260502004902 52 339 3.0 3.0 0.00 0.00 0.00 62 1016.1
20260502004357 53 333 3.0 3.0 0.00 0.00 0.00 61 1016.0
20260502003855 53 59 2.0 2.0 0.00 0.00 0.00 60 1015.8
20260502003352 53 14 3.0 3.0 0.00 0.00 0.00 59 1015.8
20260502002848 54 9 5.0 7.0 0.00 0.00 0.00 58 1015.7
20260502002345 54 25 8.0 10.0 0.00 0.00 0.00 58 1015.7
20260502001843 54 14 1.0 1.0 0.00 0.00 0.00 59 1015.4
20260502001340 55 17 0.0 1.0 0.00 0.00 0.00 58 1015.4
20260502000838 55 15 2.0 3.0 0.00 0.00 0.00 57 1015.5
20260502000336 55 344 2.0 2.0 0.00 0.00 0.00 57 1015.3
20260501235832 55 38 2.0 2.0 0.00 0.00 0.00 56 1015.4
20260501235327 56 54 4.0 5.0 0.00 0.00 0.00 56 1015.2
20260501234823 56 50 3.0 5.0 0.00 0.00 0.00 57 1015.4
20260501234320 56 33 2.0 3.0 0.00 0.00 0.00 56 1015.4
20260501233819 55 10 1.0 2.0 0.00 0.00 0.00 56 1015.3
20260501233316 55 334 4.0 5.0 0.00 0.00 0.00 58 1015.6
20260501232811 55 44 6.0 8.0 0.00 0.00 0.00 58 1015.3
20260501232308 56 29 5.0 5.0 0.00 0.00 0.00 58 1015.2
20260501231806 57 52 6.0 8.0 0.00 0.00 0.00 56 1015.2
20260501231304 57 353 5.0 8.0 0.00 0.00 0.00 55 1015.2
20260501230802 56 41 5.0 7.0 0.00 0.00 0.00 55 1015.3
20260501230300 57 337 1.0 1.0 0.00 0.00 0.00 55 1015.0
20260501225757 57 70 0.0 1.0 0.00 0.00 0.00 53 1015.2
20260501225256 59 43 7.0 9.0 0.00 0.00 0.00 50 1015.0
20260501224751 59 230 0.0 1.0 0.00 0.00 0.00 46 1015.0
20260501224249 60 308 1.0 3.0 0.00 0.00 0.00 47 1015.1
20260501223744 60 17 3.0 3.0 0.00 0.00 0.00 47 1014.9
20260501223241 58 180 2.0 3.0 0.00 0.00 0.00 51 1015.1
20260501222737 58 349 3.0 3.0 0.00 0.00 0.00 50 1015.1
20260501222234 59 314 1.0 2.0 0.00 0.00 0.00 49 1015.1
20260501221732 59 264 0.0 1.0 0.00 0.00 0.00 51 1015.2
20260501221229 57 347 3.0 5.0 0.00 0.00 0.00 51 1015.0
20260501220726 58 271 1.0 1.0 0.00 0.00 0.00 52 1015.0
20260501220223 57 284 2.0 2.0 0.00 0.00 0.00 56 1015.3
20260501215720 57 358 3.0 5.0 0.00 0.00 0.00 54 1015.3
20260501215215 57 315 2.0 2.0 0.00 0.00 0.00 56 1015.4
20260501214710 58 272 1.0 1.0 0.00 0.00 0.00 56 1015.4
20260501214207 58 258 0.0 0.0 0.00 0.00 0.00 53 1015.4
20260501213703 57 264 1.0 1.0 0.00 0.00 0.00 54 1015.5
20260501213200 57 251 0.0 1.0 0.00 0.00 0.00 57 1015.3
20260501212656 57 20 3.0 5.0 0.00 0.00 0.00 53 1015.4
20260501212153 58 0 5.0 7.0 0.00 0.00 0.00 53 1015.4
20260501211650 57 231 0.0 1.0 0.00 0.00 0.00 54 1015.6
20260501211147 57 266 1.0 2.0 0.00 0.00 0.00 55 1015.5
20260501210644 57 285 2.0 2.0 0.00 0.00 0.00 52 1015.6
20260501210141 57 272 2.0 2.0 0.00 0.00 0.00 51 1015.6
20260501205637 57 237 2.0 2.0 0.00 0.00 0.00 50 1015.7
20260501205135 58 260 1.0 1.0 0.00 0.00 0.00 51 1015.5
20260501204631 57 275 1.0 1.0 0.00 0.00 0.00 55 1015.9
20260501204127 56 258 3.0 5.0 0.00 0.00 0.00 56 1015.9
20260501203624 55 256 3.0 5.0 0.00 0.00 0.00 58 1016.2
20260501203121 54 232 1.0 1.0 0.00 0.00 0.00 61 1016.3
20260501202618 54 303 6.0 9.0 0.00 0.00 0.00 64 1016.2
20260501202115 55 253 3.0 3.0 0.00 0.00 0.00 58 1016.2
20260501201612 55 297 2.0 2.0 0.00 0.00 0.00 59 1016.3
20260501201108 56 287 1.0 1.0 0.00 0.00 0.00 54 1016.5
20260501200605 55 24 3.0 5.0 0.00 0.00 0.00 51 1016.3
20260501195600 55 220 2.0 2.0 0.00 0.00 0.00 59 1016.5
20260501195055 54 189 3.0 3.0 0.00 0.00 0.00 58 1016.3
20260501194551 55 265 5.0 6.0 0.00 0.00 0.00 60 1016.6
20260501194047 56 194 7.0 9.0 0.00 0.00 0.00 53 1016.2
20260501193544 58 232 6.0 9.0 0.00 0.00 0.00 46 1016.2
20260501193043 59 217 2.0 2.0 0.00 0.00 0.00 48 1016.1
20260501192539 59 281 2.0 3.0 0.00 0.00 0.00 49 1015.9
20260501192037 59 235 1.0 2.0 0.00 0.00 0.00 46 1016.2
20260501191534 59 266 3.0 3.0 0.00 0.00 0.00 44 1016.0
20260501191032 60 268 1.0 2.0 0.00 0.00 0.00 44 1016.0
20260501190527 59 263 1.0 1.0 0.00 0.00 0.00 46 1016.2
20260501190023 59 249 4.0 6.0 0.00 0.00 0.00 49 1015.9